EB5CGD-3 Weather Reports


Display with metric or nautical units.
time (UTC)temp
F
wind
direction
speed
MPH
gust
MPH
rain 1hr
in
rain 24hr
in
rain mn
in
humidity
%
barometer
mb
20220118110551 59 38 3.0 4.0 0.00 0.00 0.00 41 1031.4
20220118105616 60 23 2.0 3.0 0.00 0.00 0.00 40 1031.4
20220118104537 60 15 2.0 4.0 0.00 0.00 0.00 42 1031.5
20220118103558 59 0.0 0.0 0.00 0.00 0.00 43 1031.6
20220118102520 58 349 2.0 4.0 0.00 0.00 0.00 43 1031.5
20220118101539 58 5 1.0 4.0 0.00 0.00 0.00 46 1031.6
20220118100556 57 12 1.0 2.0 0.00 0.00 0.00 48 1031.6
20220118095518 55 0.0 0.0 0.00 0.00 0.00 52 1031.6
20220118094545 53 0.0 0.0 0.00 0.00 0.00 54 1031.6
20220118093604 52 0.0 0.0 0.00 0.00 0.00 56 1031.5
20220118092526 51 113 1.0 2.0 0.00 0.00 0.00 56 1031.5
20220118091543 49 113 0.0 1.0 0.00 0.00 0.00 58 1031.4
20220118090607 47 293 1.0 2.0 0.00 0.00 0.00 58 1031.4
20220118085524 46 293 0.0 1.0 0.00 0.00 0.00 61 1031.2
20220118084552 44 270 0.0 1.0 0.00 0.00 0.00 63 1031.0
20220118083616 42 278 1.0 2.0 0.00 0.00 0.00 63 1030.9
20220118082538 41 282 0.0 2.0 0.00 0.00 0.00 63 1030.7
20220118081603 40 270 2.0 3.0 0.00 0.00 0.00 64 1030.5
20220118080521 39 275 3.0 3.0 0.00 0.00 0.00 66 1030.4
20220118075545 39 289 3.0 5.0 0.00 0.00 0.00 66 1030.4
20220118074611 37 270 2.0 4.0 0.00 0.00 0.00 69 1030.4
20220118073537 36 270 2.0 3.0 0.00 0.00 0.00 72 1030.3
20220118072558 34 270 2.0 3.0 0.00 0.00 0.00 73 1030.3
20220118071519 33 280 2.0 4.0 0.00 0.00 0.00 72 1030.1
20220118070545 33 270 2.0 3.0 0.00 0.00 0.00 72 1030.1
20220118065559 33 276 2.0 4.0 0.00 0.00 0.00 70 1029.9
20220118064616 34 275 2.0 4.0 0.00 0.00 0.00 68 1030.1
20220118063533 35 293 3.0 3.0 0.00 0.00 0.00 67 1030.0
20220118062551 36 277 1.0 2.0 0.00 0.00 0.00 66 1030.0
20220118061616 37 0.0 0.0 0.00 0.00 0.00 66 1029.9
20220118060534 37 270 1.0 2.0 0.00 0.00 0.00 67 1029.9
20220118055558 37 260 2.0 2.0 0.00 0.00 0.00 67 1029.8
20220118054621 37 276 3.0 4.0 0.00 0.00 0.00 68 1029.8
20220118053540 36 270 2.0 3.0 0.00 0.00 0.00 68 1029.6
20220118052559 37 276 3.0 5.0 0.00 0.00 0.00 68 1029.5
20220118051619 36 275 3.0 4.0 0.00 0.00 0.00 70 1029.7
20220118050540 36 270 2.0 3.0 0.00 0.00 0.00 70 1029.8
20220118045545 36 270 2.0 3.0 0.00 0.00 0.00 72 1029.6
20220118044616 35 270 2.0 4.0 0.00 0.00 0.00 73 1029.6
20220118043538 35 270 1.0 2.0 0.00 0.00 0.00 74 1029.7
20220118042601 34 270 2.0 3.0 0.00 0.00 0.00 75 1029.8
20220118041621 33 283 2.0 4.0 0.00 0.00 0.00 73 1029.6
20220118040535 35 288 2.0 2.0 0.00 0.00 0.00 72 1029.7
20220118035542 36 270 2.0 3.0 0.00 0.00 0.00 71 1029.8
20220118034602 37 283 3.0 4.0 0.00 0.00 0.00 72 1030.0
20220118033522 35 274 2.0 4.0 0.00 0.00 0.00 74 1030.0
20220118032548 35 279 2.0 3.0 0.00 0.00 0.00 73 1030.0
20220118031613 35 293 2.0 3.0 0.00 0.00 0.00 73 1030.1
20220118030534 35 270 1.0 2.0 0.00 0.00 0.00 73 1030.2
20220118025540 36 287 2.0 4.0 0.00 0.00 0.00 72 1030.2
20220118024605 38 293 3.0 4.0 0.00 0.00 0.00 71 1030.6
20220118023523 37 266 3.0 3.0 0.00 0.00 0.00 73 1030.5
20220118022546 36 275 4.0 5.0 0.00 0.00 0.00 72 1030.6
20220118021612 37 276 3.0 4.0 0.00 0.00 0.00 71 1030.7
20220118020536 37 276 3.0 4.0 0.00 0.00 0.00 71 1030.7
20220118015555 36 284 2.0 4.0 0.00 0.00 0.00 72 1030.7
20220118014518 37 286 3.0 4.0 0.00 0.00 0.00 71 1030.6
20220118013545 37 289 1.0 3.0 0.00 0.00 0.00 71 1030.8
20220118012602 37 307 2.0 2.0 0.00 0.00 0.00 72 1030.8
20220118011519 37 281 3.0 4.0 0.00 0.00 0.00 73 1030.5
20220118010535 37 270 2.0 3.0 0.00 0.00 0.00 73 1030.6
20220118005615 37 270 2.0 2.0 0.00 0.00 0.00 72 1030.6
20220118004524 38 293 2.0 4.0 0.00 0.00 0.00 71 1030.8
20220118003544 38 283 2.0 4.0 0.00 0.00 0.00 71 1030.7
20220118002603 38 278 2.0 3.0 0.00 0.00 0.00 71 1030.9
20220118001518 38 264 3.0 4.0 0.00 0.00 0.00 71 1030.9
20220118000540 39 267 5.0 7.0 0.00 0.00 0.00 72 1030.9
20220117235602 38 267 5.0 7.0 0.00 0.00 0.00 71 1030.9
20220117234522 39 290 3.0 4.0 0.00 0.00 0.00 68 1031.2
20220117233543 41 275 3.0 4.0 0.00 0.00 0.00 68 1031.2
20220117232604 41 277 4.0 6.0 0.00 0.00 0.00 69 1031.2
20220117231534 41 271 4.0 5.0 0.00 0.00 0.00 69 1031.2
20220117230558 41 279 4.0 4.0 0.00 0.00 0.00 70 1031.3
20220117225517 40 280 4.0 6.0 0.00 0.00 0.00 70 1031.3
20220117224540 40 287 4.0 4.0 0.00 0.00 0.00 70 1031.2
20220117223559 40 284 1.0 3.0 0.00 0.00 0.00 69 1031.5
20220117222519 41 281 0.0 1.0 0.00 0.00 0.00 69 1031.4
20220117221539 42 266 3.0 5.0 0.00 0.00 0.00 69 1031.3
20220117220606 42 264 3.0 4.0 0.00 0.00 0.00 69 1031.3
20220117215522 42 262 4.0 5.0 0.00 0.00 0.00 69 1031.2
20220117214548 42 273 4.0 6.0 0.00 0.00 0.00 71 1031.1
20220117213612 42 276 5.0 6.0 0.00 0.00 0.00 72 1031.3
20220117212525 41 282 4.0 5.0 0.00 0.00 0.00 71 1031.3
20220117211547 42 279 3.0 4.0 0.00 0.00 0.00 70 1031.3
20220117210607 43 293 3.0 5.0 0.00 0.00 0.00 70 1031.4
20220117205530 43 274 4.0 4.0 0.00 0.00 0.00 70 1031.3
20220117204553 43 273 6.0 8.0 0.00 0.00 0.00 71 1031.5
20220117203615 43 275 4.0 5.0 0.00 0.00 0.00 71 1031.5
20220117202539 44 282 3.0 4.0 0.00 0.00 0.00 72 1031.6
20220117201601 44 270 5.0 6.0 0.00 0.00 0.00 73 1031.5
20220117200521 43 270 3.0 4.0 0.00 0.00 0.00 74 1031.5
20220117195545 43 273 3.0 4.0 0.00 0.00 0.00 75 1031.5
20220117194603 42 270 5.0 7.0 0.00 0.00 0.00 76 1031.5
20220117193526 42 270 3.0 4.0 0.00 0.00 0.00 76 1031.4
20220117192547 42 274 4.0 5.0 0.00 0.00 0.00 75 1031.3
20220117191609 43 281 3.0 4.0 0.00 0.00 0.00 74 1031.4
20220117190526 44 282 3.0 4.0 0.00 0.00 0.00 74 1031.3
20220117185547 45 277 2.0 3.0 0.00 0.00 0.00 75 1031.2
20220117184611 45 270 2.0 3.0 0.00 0.00 0.00 75 1031.3
20220117183529 45 270 2.0 4.0 0.00 0.00 0.00 75 1031.0
20220117182550 45 285 3.0 4.0 0.00 0.00 0.00 73 1031.0
20220117181559 47 275 2.0 3.0 0.00 0.00 0.00 72 1030.8
20220117180520 48 145 1.0 2.0 0.00 0.00 0.00 72 1030.8
20220117175544 48 176 2.0 3.0 0.00 0.00 0.00 71 1030.7
20220117174604 49 184 3.0 4.0 0.00 0.00 0.00 69 1030.9
20220117173620 49 175 1.0 2.0 0.00 0.00 0.00 67 1031.0
20220117172535 50 131 3.0 4.0 0.00 0.00 0.00 65 1031.0
20220117171554 50 146 3.0 3.0 0.00 0.00 0.00 63 1030.9
20220117170620 51 126 2.0 3.0 0.00 0.00 0.00 61 1030.8
20220117165534 52 139 3.0 4.0 0.00 0.00 0.00 58 1030.8
20220117164553 53 127 4.0 5.0 0.00 0.00 0.00 56 1030.8
20220117163617 55 122 5.0 7.0 0.00 0.00 0.00 52 1030.5
20220117162525 56 125 4.0 7.0 0.00 0.00 0.00 50 1030.5
20220117161548 57 103 5.0 6.0 0.00 0.00 0.00 48 1030.5
20220117160606 58 113 6.0 8.0 0.00 0.00 0.00 43 1030.7
20220117155522 59 106 6.0 8.0 0.00 0.00 0.00 39 1030.8
20220117154543 60 120 5.0 8.0 0.00 0.00 0.00 39 1030.9
20220117153557 61 116 5.0 6.0 0.00 0.00 0.00 38 1030.8
20220117152616 61 140 2.0 3.0 0.00 0.00 0.00 40 1031.0
20220117151531 60 94 2.0 3.0 0.00 0.00 0.00 41 1031.1
20220117150547 60 98 3.0 5.0 0.00 0.00 0.00 41 1031.2
20220117145611 61 107 4.0 6.0 0.00 0.00 0.00 41 1031.2
20220117144528 61 112 4.0 5.0 0.00 0.00 0.00 41 1031.2
20220117143541 61 161 4.0 7.0 0.00 0.00 0.00 42 1031.2
20220117142559 61 103 4.0 6.0 0.00 0.00 0.00 42 1031.1
20220117141516 60 130 3.0 5.0 0.00 0.00 0.00 43 1031.1
20220117140540 60 86 4.0 5.0 0.00 0.00 0.00 43 1031.4
20220117135559 60 120 4.0 7.0 0.00 0.00 0.00 43 1031.3
20220117134517 60 120 3.0 6.0 0.00 0.00 0.00 45 1031.3
20220117133542 59 128 5.0 8.0 0.00 0.00 0.00 45 1031.3
20220117132601 60 104 5.0 6.0 0.00 0.00 0.00 46 1031.3
20220117131526 61 99 4.0 4.0 0.00 0.00 0.00 46 1031.4
20220117130540 59 133 2.0 4.0 0.00 0.00 0.00 47 1031.3
20220117125605 59 145 4.0 7.0 0.00 0.00 0.00 49 1031.6
20220117124531 59 114 4.0 6.0 0.00 0.00 0.00 49 1032.4
20220117123557 59 107 4.0 6.0 0.00 0.00 0.00 51 1032.1
20220117122519 58 128 5.0 9.0 0.00 0.00 0.00 50 1032.2
20220117121540 59 136 5.0 7.0 0.00 0.00 0.00 52 1032.5
20220117120601 58 110 4.0 5.0 0.00 0.00 0.00 54 1033.1
20220117115520 58 131 5.0 5.0 0.00 0.00 0.00 54 1033.5
20220117114544 57 112 3.0 5.0 0.00 0.00 0.00 57 1032.9
20220117113600 56 105 5.0 5.0 0.00 0.00 0.00 59 1033.0
20220117112616 55 82 3.0 4.0 0.00 0.00 0.00 60 1033.4
20220117111539 55 72 3.0 4.0 0.00 0.00 0.00 59 1033.1